Location: Lake Almanor
(40.2485°N, 121.1442°W)
Time: 01:57:25
(UTC-08:00)

STARLINK-1089 - Pass Details

Date: 28 January 2020
Orbit: 348 x 351 km, 53.0° (Epoch: 22 February)

Event Time Altitude Azimuth Distance (km) Brightness Sun altitude
Rises 18:23:00 0° 320° (NW) 2,178 7.1 -12.6°
Reaches altitude 10° 18:25:42 10° 347° (NNW) 1,332 5.6 -13.1°
Maximum altitude 18:27:25 14° 22° (NNE) 1,114 4.9 -13.4°
Enters shadow 18:27:26 14° 22° (NNE) 1,114 4.9 -13.4°
